SCP
0 1 1 1 1 1 1 1 1 1 1 1 1 1 1 1 1 1 1 0 0 0 0 0 0 0 0 0 0 0 0 0 0 0 0 0 0 0 0 0 0 0 0
1 1 1 1 1 1 1 1 1 1 1 1 1 1 1 1 1 1 1 1 0 0 0 0 0 0 0 0 0 0 0 0 0 0 0 0 0 0 0 0 0 0 0
1 1 1 1 1 1 1 1 1 1 1 1 1 1 1 1 1 1 1 1 0 0 0 0 0 0 0 0 0 0 0 0 0 0 0 0 0 0 0 0 0 0 0
1 1 1 1 1 1 1 1 1 1 1 1 1 1 1 1 1 1 1 1 0 0 0 0 0 0 0 0 0 0 0 0 0 0 0 0 0 0 0 0 0 0 0
1 1 1 1 1 1 1 1 1 1 1 1 1 1 1 1 1 1 0 0 0 0 0 0 0 0 0 0 0 0 0 0 0 0 0 0 0 0 0 0 0 0 0
1 1 1 1 1 1 1 1 1 1 1 1 1 1 1 1 0 0 0 0 0 0 0 0 0 0 0 0 0 0 0 0 0 0 0 0 0 0 0 0 0 0 0
1 1 1 1 1 1 1 1 1 1 1 1 1 1 1 1 0 0 0 0 0 0 0 0 0 0 0 0 0 0 0 0 0 0 0 0 0 0 0 0 0 0 0
1 1 1 1 1 1 1 1 1 1 1 1 1 1 1 0 0 0 0 0 0 0 0 0 1 1 1 1 0 0 0 0 0 0 0 0 0 0 0 0 0 0 0
2 1 1 1 1 1 1 1 1 1 1 1 1 1 1 0 0 0 1 0 0 0 0 0 1 1 1 1 1 1 1 1 0 0 0 0 0 0 0 0 0 0 0
2 1 1 1 1 1 1 1 1 1 1 1 1 1 1 1 1 1 1 1 1 1 1 1 1 1 1 1 1 1 1 1 1 1 0 0 0 0 0 0 0 0 0
1 1 1 1 1 2 1 1 1 1 1 1 1 1 1 1 1 1 1 1 1 1 1 1 1 1 1 1 1 1 1 1 1 1 1 0 0 0 0 1 1 1 1
1 1 1 1 1 2 1 1 1 1 1 1 1 1 1 1 1 1 1 1 1 1 1 1 1 1 1 2 2 2 1 1 1 1 1 1 1 1 1 1 1 1 1
1 2 2 1 1 1 1 1 1 1 1 1 1 1 1 1 1 1 1 1 1 1 1 1 1 1 2 2 2 2 2 1 1 1 1 1 1 1 1 1 1 1 1
2 2 2 1 1 1 1 1 1 1 1 1 1 1 1 1 1 1 1 1 1 1 1 1 1 2 2 2 2 2 2 1 2 2 1 1 1 1 1 1 1 1 1
2 2 1 1 1 1 1 1 1 1 1 1 1 1 2 2 2 2 2 1 1 1 1 1 1 1 2 2 1 1 1 1 2 2 1 1 1 1 1 1 1 1 1
2 1 1 1 1 1 1 1 1 1 1 1 1 1 2 2 2 2 2 1 1 1 1 1 1 1 1 1 1 1 1 1 1 1 1 1 1 1 1 1 1 1 1
1 1 1 1 1 1 1 1 1 1 0 0 0 1 1 1 2 2 1 1 1 1 1 1 1 1 1 1 1 1 1 1 1 1 1 1 1 2 2 2 2 2 2
1 1 1 1 1 0 0 0 0 0 0 0 0 0 1 1 1 1 1 1 1 1 1 1 1 0 0 1 1 1 1 1 1 1 1 1 1 1 2 2 2 2 2
0 0 0 0 0 0 0 0 0 0 0 0 0 0 0 0 0 0 0 0 0 0 0 0 0 0 0 0 0 0 1 1 1 1 1 1 1 1 2 2 2 2 2
0 0 0 0 0 0 0 0 0 0 0 0 0 0 0 0 0 0 0 0 0 0 0 0 0 0 0 0 0 0 0 0 1 1 1 1 1 1 2 2 2 2 2
0 0 0 0 0 0 0 0 0 0 0 0 0 0 0 0 0 0 0 0 0 0 0 0 0 0 0 0 0 0 0 0 0 1 1 1 2 2 2 2 2 2 2
0 0 0 0 0 0 0 0 0 0 0 0 0 0 0 0 0 0 0 0 0 0 0 0 0 0 0 0 0 0 0 0 0 0 1 1 2 2 2 2 2 2 2
0 0 0 0 0 0 0 0 0 0 0 0 0 0 0 0 0 0 0 0 0 0 0 0 0 0 0 0 0 0 0 0 0 0 1 1 2 2 3 2 2 2 2
0 0 0 0 0 0 0 0 0 0 0 0 0 0 0 0 0 0 0 0 0 0 0 0 0 0 0 0 0 0 0 0 0 0 0 1 1 2 2 2 2 2 2
0 0 0 0 0 0 0 0 0 0 0 0 0 0 0 0 0 0 0 0 0 0 0 0 0 0 0 0 0 0 0 0 0 0 0 0 1 1 1 1 2 2 2
0 0 0 0 0 0 0 0 0 0 0 0 0 0 0 0 0 0 0 0 0 0 0 0 0 0 0 0 0 0 0 0 0 0 0 0 0 0 1 1 1 1 2
Wind_Speed
6 7 13 15 16 16 16 16 16 16 16 15 15 15 14 14 14 13 13 12 12 11 9 8 7 7 7 7 8 8 9 10 10 10 10 10 10 11 12 13 13 11 16
9 8 13 14 15 15 16 16 16 16 15 15 15 14 14 13 13 12 12 12 11 10 10 9 8 7 7 7 8 9 9 9 9 9 10 10 11 11 12 13 13 10 16
11 8 11 13 14 15 15 15 16 15 15 15 14 14 13 13 12 12 12 11 11 10 9 9 8 8 7 7 8 8 8 9 8 9 8 6 8 11 12 13 14 15 15
11 7 9 13 13 14 14 14 14 14 14 13 13 13 12 12 11 11 11 11 10 10 9 9 8 8 7 8 8 8 8 8 8 8 4 4 5 10 12 13 14 14 14
10 7 9 14 14 13 13 13 13 13 12 12 11 11 11 10 10 10 10 9 9 9 9 8 8 8 7 7 7 7 7 7 8 6 3 3 3 10 12 13 13 14 14
9 7 8 13 13 12 11 11 11 11 11 10 10 9 9 9 9 9 9 8 8 8 8 8 8 8 8 7 7 7 7 7 6 4 3 2 3 9 12 12 13 13 14
9 6 7 12 11 11 10 10 10 10 9 9 9 9 9 9 9 8 8 8 7 7 7 7 8 8 8 8 7 7 7 7 4 3 3 3 4 8 11 12 13 13 13
9 6 6 11 11 10 9 9 9 9 9 8 8 9 9 9 9 8 9 9 8 8 7 7 7 8 8 8 8 7 7 7 4 4 4 5 6 8 11 11 12 13 13
8 6 5 5 6 8 8 8 8 8 7 7 8 8 8 8 8 8 8 8 9 9 9 9 9 9 8 8 8 8 8 8 3 2 4 4 8 11 12 13 13 13 13
6 5 4 4 3 2 3 6 7 7 7 7 8 8 8 9 9 9 7 8 9 10 10 10 10 10 9 9 9 9 9 8 4 4 3 4 10 13 14 14 14 14 14
6 4 3 3 2 1 1 3 4 6 6 6 6 9 8 4 3 4 7 9 10 11 11 11 12 11 11 10 12 11 9 4 4 4 4 6 10 14 16 16 16 16 15
6 4 3 2 1 1 1 0 1 1 1 2 2 4 3 2 3 5 6 10 11 11 11 11 12 11 9 5 8 11 5 6 5 5 5 10 11 14 16 17 17 17 17
5 4 3 2 1 1 1 1 1 1 1 2 2 4 3 2 2 3 2 4 4 6 4 6 7 5 5 5 5 5 6 6 5 5 7 12 13 14 17 17 18 19 19
6 5 4 4 3 3 2 2 2 2 2 2 2 2 2 2 2 2 2 2 2 2 3 3 3 5 6 7 8 8 8 7 6 5 7 14 14 15 17 18 19 20 20
6 6 5 5 4 4 4 3 4 3 3 3 3 3 2 1 2 1 1 1 2 2 2 2 3 4 5 6 7 8 9 10 9 8 6 14 16 16 18 18 19 21 21
5 4 4 4 3 4 4 3 2 2 2 2 2 3 3 1 1 1 1 1 1 1 2 2 3 4 4 4 7 8 9 9 8 9 8 10 17 16 17 19 19 21 23
4 4 3 3 3 4 3 2 2 2 2 3 3 4 3 2 1 1 1 1 2 2 2 2 3 3 3 4 6 8 8 9 9 10 9 8 9 15 17 18 18 19 22
4 4 3 3 3 3 3 2 2 2 3 3 3 3 4 3 2 1 1 2 2 1 1 2 2 2 3 4 5 6 6 7 10 10 9 9 8 8 13 18 18 18 20
5 4 3 3 3 3 2 2 2 2 3 3 3 3 4 4 3 2 2 2 2 2 2 2 2 2 4 5 5 6 6 7 9 10 11 11 10 9 8 12 17 18 20
4 3 3 2 2 2 2 2 2 3 3 3 3 4 5 4 4 3 2 2 2 2 2 2 3 3 3 5 6 7 6 7 7 9 10 9 9 11 10 10 9 11 18
4 4 3 3 2 1 1 1 1 2 2 3 3 4 5 5 5 3 3 3 2 2 3 3 2 3 3 2 3 4 5 6 7 7 7 7 9 9 9 10 8 7 7
6 5 4 4 3 2 1 1 1 1 2 2 3 3 4 5 5 4 4 3 3 2 3 3 2 2 2 1 2 3 4 4 3 5 6 7 8 6 8 11 9 9 8
6 6 5 5 4 3 1 1 1 2 2 3 3 3 4 5 5 4 4 3 3 1 2 3 2 2 2 2 2 2 3 3 4 3 4 5 5 5 7 7 10 10 10
6 5 5 5 4 3 2 1 1 1 2 3 2 3 5 4 4 4 4 3 3 2 2 3 1 2 2 3 2 3 4 3 3 4 3 2 4 5 7 8 9 10 11
5 5 5 4 3 3 2 2 2 2 3 2 3 4 4 4 4 4 3 3 3 2 2 2 2 2 2 2 2 2 3 3 4 4 5 3 3 3 5 7 7 8 10
4 4 4 4 3 3 3 3 3 4 4 4 4 3 3 3 3 4 4 3 3 3 3 3 2 3 2 3 3 2 2 3 3 3 4 4 4 4 5 5 6 7 7
Wind_Direction
145 149 148 142 136 131 126 121 117 115 114 113 115 119 126 133 138 143 148 152 154 154 151 144 136 126 121 121 121 119 119 120 123 122 120 118 117 117 117 117 117 118 121
138 145 147 142 136 132 128 125 123 122 121 121 122 124 128 134 140 145 151 155 158 158 155 151 143 135 130 128 127 126 127 129 131 129 126 124 124 122 121 120 121 126 125
135 141 144 142 139 135 132 129 128 128 128 129 131 134 137 142 147 152 156 160 162 162 160 157 152 146 141 137 135 135 136 137 137 130 116 111 124 126 126 126 127 127 128
134 133 142 143 141 139 137 134 133 133 134 136 139 142 146 150 154 159 162 165 167 168 167 166 163 158 152 148 146 147 147 143 136 122 103 116 130 135 133 132 132 132 131
128 127 148 147 145 144 141 139 137 138 140 142 146 149 153 158 162 166 170 173 176 176 176 177 175 171 166 161 158 159 159 152 145 124 107 98 119 145 142 141 139 138 136
122 124 147 147 147 147 147 146 145 145 148 152 156 160 165 170 175 178 182 186 188 188 187 187 187 184 180 175 173 173 174 172 149 126 131 127 140 158 153 151 147 145 143
121 118 139 144 145 148 151 154 155 157 160 165 171 176 181 186 191 194 197 201 202 201 201 201 201 196 193 190 189 187 191 192 145 144 162 168 179 176 166 162 157 155 153
123 114 130 142 145 150 155 160 164 169 174 180 187 192 197 202 207 209 212 214 215 216 216 216 217 212 205 205 204 201 204 208 181 174 174 179 193 192 180 173 168 165 163
115 106 106 125 143 154 161 168 176 183 189 196 203 208 213 218 222 224 225 226 223 224 226 227 225 223 217 216 218 215 215 218 186 173 189 187 202 201 193 185 181 177 174
102 95 94 97 102 123 161 184 192 199 205 212 220 225 229 233 235 237 237 240 240 237 236 234 230 228 224 222 225 226 226 226 206 199 205 204 208 207 203 196 192 188 185
118 98 89 86 87 101 166 219 216 222 226 231 239 242 240 245 259 261 256 251 251 251 249 244 239 236 232 228 228 228 229 217 206 211 212 219 217 215 211 204 199 196 194
136 123 95 92 105 150 213 239 296 287 272 249 265 266 262 243 244 254 264 264 263 262 261 257 252 247 240 228 231 233 225 213 211 218 222 227 227 224 220 211 205 201 199
117 108 86 74 91 120 355 14 2 340 333 306 294 275 265 258 254 262 269 280 284 284 282 278 270 250 235 222 220 222 225 221 220 221 224 229 232 231 227 219 211 205 202
90 81 70 59 53 61 54 36 26 10 359 344 319 295 279 267 257 248 251 264 269 277 280 279 271 261 250 237 228 227 228 228 225 223 224 230 231 233 232 225 217 212 207
89 77 66 65 63 65 61 45 38 17 358 352 349 343 319 268 261 255 254 256 262 264 271 282 280 275 266 256 244 239 235 232 231 226 228 233 232 231 232 231 224 217 213
100 96 84 78 77 78 71 66 53 31 6 3 354 337 324 291 264 253 259 274 277 270 264 265 272 275 272 266 258 249 245 241 237 230 225 233 236 232 230 230 229 223 218
133 126 122 119 103 97 95 85 71 49 39 25 359 344 342 337 306 283 276 281 280 279 278 278 282 279 276 268 262 256 252 244 240 234 227 223 230 234 232 230 230 227 222
160 163 173 142 132 120 108 92 73 49 43 27 10 0 1 360 353 335 311 299 303 300 292 290 282 283 276 274 270 264 256 249 244 238 231 226 222 228 231 230 229 228 227
183 181 180 161 150 128 98 71 55 43 35 16 12 11 5 3 3 355 319 307 318 312 294 290 283 264 277 279 276 268 257 250 246 243 236 230 225 223 223 228 230 228 227
198 198 189 170 151 110 69 42 24 20 13 8 6 2 2 359 4 1 330 315 314 297 290 284 282 273 265 274 282 279 268 257 244 238 238 233 227 225 223 224 225 227 226
203 206 201 186 185 122 63 45 15 340 332 339 345 354 356 357 360 5 350 327 317 285 279 283 278 286 279 270 284 288 277 259 247 241 234 232 231 229 225 221 220 219 221
207 207 206 204 201 194 167 163 206 276 293 292 313 335 347 352 352 0 354 332 318 297 299 294 263 277 279 270 269 297 306 308 284 249 234 231 233 230 230 227 219 217 218
212 208 205 203 205 203 172 106 33 0 341 339 334 330 333 337 340 345 349 347 341 327 302 296 269 249 276 282 238 255 287 298 316 291 242 236 235 234 235 232 225 221 219
217 202 197 195 199 202 176 180 214 245 275 270 282 293 308 320 327 334 343 351 355 349 324 306 306 247 255 283 286 250 248 263 287 309 300 252 240 239 236 234 231 223 217
199 188 185 182 198 207 205 212 224 244 247 271 282 292 303 313 319 327 331 345 346 337 328 324 324 293 247 255 268 281 278 265 248 264 288 301 300 260 240 233 229 224 216
175 166 165 176 210 225 230 231 226 245 259 273 283 290 299 304 305 313 318 327 322 318 315 309 303 298 274 261 260 255 258 270 277 266 274 295 299 287 260 237 226 224 219